DW2485 Weather Reports


time (UTC)temp
F
wind
direction
speed
knots
gust
knots
rain 1hr
in
rain 24hr
in
rain mn
in
humidity
%
barometer
mb
20260509160505 71 279 13.9 20.9 0.00 0.00 0.00 100 1007.9
20260509160005 71 289 13.9 20.0 0.00 0.00 0.00 100 1008.0
20260509155504 72 286 19.1 24.3 0.00 0.00 0.00 100 1007.9
20260509154505 72 276 17.4 22.6 0.00 0.00 0.00 100 1008.0
20260509154005 71 289 16.5 30.4 0.00 0.00 0.00 100 1008.0
20260509153504 71 283 17.4 25.2 0.00 0.00 0.00 100 1008.0
20260509152005 71 272 17.4 24.3 0.00 0.00 0.00 100 1007.7
20260509151505 71 264 12.2 20.0 0.00 0.00 0.00 100 1007.6
20260509150505 70 255 9.6 15.6 0.00 0.00 0.00 100 1007.5
20260509145505 70 277 11.3 15.6 0.00 0.00 0.00 100 1007.3
20260509144005 68 265 9.6 13.9 0.00 0.00 0.00 100 1007.5
20260509143005 67 239 4.3 10.4 0.00 0.00 0.00 100 1007.5
20260509142004 66 273 6.1 8.7 0.00 0.00 0.00 100 1007.6
20260509141505 66 272 6.1 10.4 0.00 0.00 0.00 100 1007.6
20260509141004 65 256 4.3 7.0 0.00 0.00 0.00 100 1007.4
20260509134504 61 260 2.6 6.1 0.00 0.00 0.00 100 1007.7
20260509134004 60 248 1.7 4.3 0.00 0.00 0.00 100 1007.5
20260509132005 57 238 4.3 7.0 0.00 0.00 0.00 100 1007.2
20260509131004 56 217 2.6 4.3 0.00 0.00 0.00 100 1007.2
20260509130505 55 235 2.6 4.3 0.00 0.00 0.00 100 1007.1
20260509125004 53 211 4.3 4.3 0.00 0.00 0.00 100 1007.0
20260509124505 53 207 2.6 2.6 0.00 0.00 0.00 100 1007.0
20260509124005 52 188 2.6 4.3 0.00 0.00 0.00 100 1007.0
20260509122504 50 202 0.9 1.7 0.00 0.00 0.00 100 1007.0
20260509121004 49 211 0.9 0.9 0.00 0.00 0.00 100 1006.8
20260509120504 48 211 0.0 1.7 0.00 0.00 0.00 100 1006.8
20260509115504 48 211 0.0 1.7 0.00 0.00 0.00 100 1006.7
20260509115005 48 211 0.0 1.7 0.00 0.00 0.00 100 1006.7
20260509113504 47 198 0.9 1.7 0.00 0.00 0.00 100 1006.7
20260509112505 47 198 0.9 0.9 0.00 0.00 0.00 100 1006.5
20260509111504 47 198 0.9 1.7 0.00 0.00 0.00 100 1006.5
20260509110504 47 198 2.6 2.6 0.00 0.00 0.00 100 1006.3
20260509105004 48 232 1.7 1.7 0.00 0.00 0.00 100 1006.4
20260509104004 49 232 1.7 1.7 0.00 0.00 0.00 100 1006.3
20260509103503 49 242 1.7 1.7 0.00 0.00 0.00 100 1006.4
20260509103004 49 242 0.9 1.7 0.00 0.00 0.00 100 1006.4
20260509102504 49 242 0.9 1.7 0.00 0.00 0.00 100 1006.4
20260509102004 49 242 1.7 1.7 0.00 0.00 0.00 100 1006.4
20260509095504 50 232 1.7 2.6 0.00 0.00 0.00 100 1006.3
20260509094004 50 244 2.6 2.6 0.00 0.00 0.00 100 1006.3
20260509092504 50 236 2.6 4.3 0.00 0.00 0.00 100 1006.2
20260509091504 50 244 2.6 2.6 0.00 0.00 0.00 100 1006.6
20260509091004 50 236 2.6 2.6 0.00 0.00 0.00 100 1006.5
20260509090004 50 225 1.7 2.6 0.00 0.00 0.00 100 1006.5
20260509085504 51 244 1.7 2.6 0.00 0.00 0.00 100 1006.5
20260509084004 51 271 1.7 1.7 0.00 0.00 0.00 100 1006.2
20260509083504 51 270 0.9 2.6 0.00 0.00 0.00 100 1006.0
20260509082004 51 210 2.6 4.3 0.00 0.00 0.00 100 1006.0
20260509080004 51 199 2.6 2.6 0.00 0.00 0.00 100 1006.2
20260509075504 52 196 2.6 2.6 0.00 0.00 0.00 100 1006.3
20260509073004 52 195 0.9 1.7 0.00 0.00 0.00 100 1006.4
20260509065504 53 138 0.9 1.7 0.00 0.00 0.00 100 1006.7
20260509065004 54 197 0.0 2.6 0.00 0.00 0.00 100 1006.6
20260509064504 54 190 0.9 1.7 0.00 0.00 0.00 100 1006.7
20260509064004 54 215 0.0 2.6 0.00 0.00 0.00 100 1006.7
20260509063004 54 208 1.7 2.6 0.00 0.00 0.00 100 1006.8
20260509062503 54 203 2.6 5.2 0.00 0.00 0.00 100 1006.8
20260509060004 55 193 4.3 6.1 0.00 0.00 0.00 100 1006.7
20260509055004 55 211 2.6 7.0 0.00 0.00 0.00 100 1006.7
20260509054504 55 207 2.6 6.1 0.00 0.00 0.00 100 1006.7
20260509053503 55 199 4.3 7.8 0.00 0.00 0.00 100 1006.7
20260509053004 55 204 5.2 7.8 0.00 0.00 0.00 100 1006.7
20260509052004 56 196 5.2 10.4 0.00 0.00 0.00 100 1006.8
20260509051504 56 194 6.1 8.7 0.00 0.00 0.00 100 1006.7
20260509051003 56 187 5.2 7.8 0.00 0.00 0.00 100 1006.9
20260509050003 57 181 5.2 10.4 0.00 0.00 0.00 100 1007.0
20260509045004 57 179 5.2 10.4 0.00 0.00 0.00 100 1007.1
20260509042504 59 194 6.1 12.2 0.00 0.00 0.00 100 1007.3
20260509042004 59 194 7.0 10.4 0.00 0.00 0.00 100 1007.4
20260509041503 59 207 6.1 10.4 0.00 0.00 0.00 100 1007.5
20260509040506 59 197 7.8 10.4 0.00 0.00 0.00 100 1007.5
20260509035505 60 206 4.3 10.4 0.00 0.00 0.00 100 1007.7
20260509035006 60 209 5.2 10.4 0.00 0.00 0.00 100 1007.8
20260509034505 60 210 6.1 10.4 0.00 0.00 0.00 100 1007.8
20260509034005 60 215 5.2 10.4 0.00 0.00 0.00 100 1007.7
20260509031006 61 201 7.8 12.2 0.00 0.00 0.00 100 1007.2
20260509030006 61 198 9.6 15.6 0.00 0.00 0.00 100 1007.1
20260509025005 61 190 10.4 17.4 0.00 0.00 0.00 100 1006.8
20260509023506 62 193 8.7 13.9 0.00 0.00 0.00 100 1006.6
20260509023005 62 186 8.7 13.0 0.00 0.00 0.00 100 1006.5
20260509022505 62 188 6.1 11.3 0.00 0.00 0.00 100 1006.3
20260509021012 63 201 6.1 10.4 0.00 0.00 0.00 100 1006.4
20260509015506 64 189 6.1 8.7 0.00 0.00 0.00 100 1006.2
20260509015006 64 193 6.1 10.4 0.00 0.00 0.00 100 1006.2
20260509014506 64 196 7.0 10.4 0.00 0.00 0.00 100 1006.1
20260509013505 65 194 7.0 11.3 0.00 0.00 0.00 100 1006.2
20260509012005 66 199 6.1 11.3 0.00 0.00 0.00 100 1006.0
20260509011506 66 193 7.0 11.3 0.00 0.00 0.00 100 1006.1
20260509010505 67 200 6.1 10.4 0.00 0.00 0.00 100 1006.1
20260509010005 67 188 6.1 10.4 0.00 0.00 0.00 100 1006.0
20260509005505 68 196 6.1 11.3 0.00 0.00 0.00 100 1006.2
20260509004506 69 192 6.1 12.2 0.00 0.00 0.00 100 1006.2
20260509004006 70 193 8.7 11.3 0.00 0.00 0.00 100 1006.2
20260509003006 71 218 4.3 7.8 0.00 0.00 0.00 100 1006.2
20260509002505 71 212 5.2 8.7 0.00 0.00 0.00 100 1006.4
20260509002006 71 224 5.2 10.4 0.00 0.00 0.00 100 1006.4
20260509001505 72 210 6.1 10.4 0.00 0.00 0.00 100 1006.4
20260508235505 72 235 5.2 11.3 0.00 0.00 0.00 100 1006.4
20260508235005 73 227 7.0 13.9 0.00 0.00 0.00 100 1006.3
20260508234506 73 237 7.8 12.2 0.00 0.00 0.00 100 1006.3
20260508231005 73 193 7.0 13.0 0.00 0.00 0.00 100 1006.6
20260508230005 73 259 9.6 13.9 0.00 0.00 0.00 100 1006.7
20260508225005 73 274 6.1 10.4 0.00 0.00 0.00 100 1006.9
20260508224005 74 261 11.3 17.4 0.00 0.00 0.00 100 1006.9
20260508222506 74 219 6.1 13.0 0.00 0.00 0.00 100 1007.1
20260508222005 74 280 7.8 10.4 0.00 0.00 0.00 100 1007.0
20260508215505 75 276 7.8 13.9 0.00 0.00 0.00 100 1007.0
20260508215005 75 249 10.4 13.0 0.00 0.00 0.00 100 1007.1
20260508214505 75 262 5.2 8.7 0.00 0.00 0.00 100 1007.1
20260508213005 74 202 2.6 7.8 0.00 0.00 0.00 100 1007.3
20260508212505 75 260 7.0 11.3 0.00 0.00 0.00 100 1007.5
20260508212005 75 253 7.8 12.2 0.00 0.00 0.00 100 1007.5
20260508211505 74 267 10.4 14.8 0.00 0.00 0.00 100 1007.5
20260508210005 74 219 1.7 7.0 0.00 0.00 0.00 100 1007.8
20260508204005 75 236 4.3 12.2 0.00 0.00 0.00 100 1008.0
20260508203005 74 232 5.2 8.7 0.00 0.00 0.00 100 1008.1
20260508201505 73 244 2.6 12.2 0.00 0.00 0.00 100 1008.5
20260508200005 74 255 8.7 13.0 0.00 0.00 0.00 100 1008.8
20260508195005 75 260 8.7 11.3 0.00 0.00 0.00 100 1008.9
20260508194505 75 278 10.4 13.9 0.00 0.00 0.00 100 1008.9
20260508194005 73 281 5.2 13.9 0.00 0.00 0.00 100 1009.0
20260508193505 73 270 8.7 15.6 0.00 0.00 0.00 100 1009.2
20260508191005 73 262 6.1 11.3 0.00 0.00 0.00 100 1009.2
20260508190006 72 348 4.3 10.4 0.00 0.00 0.00 100 1009.4
20260508185005 72 342 2.6 7.0 0.00 0.00 0.00 100 1009.6
20260508184505 72 296 2.6 11.3 0.00 0.00 0.00 100 1009.8
20260508184004 72 253 6.1 12.2 0.00 0.00 0.00 100 1009.8
20260508183004 72 292 7.0 10.4 0.00 0.00 0.00 100 1009.8
20260508181504 72 330 0.9 4.3 0.00 0.00 0.00 100 1009.9
20260508180504 71 238 5.2 7.8 0.00 0.00 0.00 100 1010.1
20260508180004 70 267 3.5 7.0 0.00 0.00 0.00 100 1010.2
20260508174005 70 338 6.1 12.2 0.00 0.00 0.00 100 1010.4
20260508173504 71 291 7.8 13.0 0.00 0.00 0.00 100 1010.4
20260508173005 72 343 8.7 11.3 0.00 0.00 0.00 100 1010.6
20260508172505 71 337 5.2 10.4 0.00 0.00 0.00 100 1010.7
20260508171005 70 330 4.3 10.4 0.00 0.00 0.00 100 1010.9
20260508170005 70 250 2.6 8.7 0.00 0.00 0.00 100 1011.1
20260508164005 70 286 10.4 15.6 0.00 0.00 0.00 100 1011.3
20260508163004 69 223 3.5 7.0 0.00 0.00 0.00 100 1011.4
20260508162505 68 70 5.2 10.4 0.00 0.00 0.00 100 1011.4